Regional Weather Roundup
Issued by NWS Newport/Morehead, NC

Current Version | Previous Version | Graphics & Text | Print | Product List | Glossary Off
Versions: 1 2 3 4 5 6 7 8 9 10 11 12 13 14 15 16 17 18 19 20 21 22 23 24 25 26 27 28 29 30 31 32 33 34 35 36 37 38 39 40 41 42 43 44 45 46 47 48 49 50

000
ASUS42 KMHX 182125
RWRMHX
WEATHER ROUNDUP FOR EASTERN NORTH CAROLINA
NATIONAL WEATHER SERVICE NEWPORT/MOREHEAD CITY NC
500 PM EDT WED APR 18 2018

NOTE: "FAIR" INDICATES FEW OR NO CLOUDS BELOW 12,000 FEET
WITH NO SIGNIFICANT WEATHER AND/OR OBSTRUCTIONS TO VISIBILITY

NCZ015>017-031-032-045>047-102-103-182200-
NORTH COAST

CITY           SKY/WX    TMP DP  RH WIND       PRES   REMARKS
EDENTON        FAIR      69  56  61 E8        29.80F
ELIZABETH CITY FAIR      64  52  64 SE12      29.82F
KITTY HAWK     FAIR      54  45  72 E5        29.83F
MANTEO         FAIR      63  51  64 SE9       29.84F

$$

NCZ045>047-081-094-103-104-182200-
CENTRAL COAST

CITY           SKY/WX    TMP DP  RH WIND       PRES   REMARKS
FRISCO         FAIR      69  59  70 SW12G21   29.86F

$$

NCZ095-097-098-100-101-182200-
SOUTHERN COAST

CITY           SKY/WX    TMP DP  RH WIND       PRES   REMARKS
BEAUFORT       FAIR      67  57  70 SW18      29.86F
CEDAR ISLAND   NOT AVBL
JACKSONVILLE   FAIR      79  56  45 S10       29.82F
PINEY ISLAND   NOT AVBL
WILMINGTON     FAIR      78  52  40 S15       29.85F


$$

NCZ011>013-027>030-043-044-078>080-089-090>093-098-182200-
COASTAL PLAIN

CITY           SKY/WX    TMP DP  RH WIND       PRES   REMARKS
AHOSKIE        FAIR      77  51  39 S6        29.78F
CLINTON        FAIR      83  52  33 SW6       29.82F
ELIZABETHTOWN  FAIR      84  44  23 MISG      29.83F
GOLDSBORO      FAIR      83  49  30 SW18      29.78F
GREENVILLE     FAIR      82  46  28 SW17G24   29.81F
HAVELOCK       SUNNY     75  56  51 S13       29.85F
KENANSVILLE    FAIR      84  48  28 SW9G17    29.81F
KINSTON        FAIR      84  46  26 SW17G23   29.81F
NEW BERN       FAIR      78  52  40 S17       29.82F
RICHLANDS      FAIR      83  49  30 SW13      29.82F
ROCKY MOUNT    FAIR      81  49  32 SW14G26   29.78F
WASHINGTON     FAIR      82  46  28 SW9       29.78F
WHITEVILLE     FAIR      83  42  22 SW10G23   29.84F

$$

AMZ130-135-150-152-154-156-158-170-250-252-270-ANZ085-086-088-633-658-670-182200-
MARINE OBSERVATIONS

STATION/POSITION TIME  TEMP    WIND        PRES    WAVE   SWELL
                       AIR SEA DIR/SP/G            HT/PER HT/PER
                 (UTC) (F)     (DEG/KT/KT) (MB)    (FT/S) (FT/S)
CHESAPEAKE LIGHT NOT AVBL
64 E VA BEACH    2050   49 51  120/ 10/ 12 1011.4    3/11   3/11
DUCK             2100   51 50  110/ 11/ 12 1009.8
2 E DUCK         2100      49                N/A     2/ 4   2/11
OREGON INLET     2100   56 56  100/  6/  9 1010.2
13E OREGON INLT  2048      54                N/A     3/10   3/10
HATTERAS CG      2100   67 61  210/ 11/ 17 1010.7
DIAMOND BUOY     2110   67 65  220/ 19/ 23 1011.5
CAPE LOOKOUT     2100          220/ 11/ 16 1011.7
BEAUFORT LAB     2100   66 62  210/  9/ 15 1011.2
30 SE NEW RVR IN 2108   67 65  220/ 16/ 21 1011.5
30 SE NEW RVR IN 2100      65                N/A     6/ 6
27 SE WRIGHTSVLE 2108   65 61  220/ 19/ 27 1012.0
5 SE WRIGHTSVLE  2108   65 60  230/ 16/ 23 1011.3
225 S CAPE HAT   2110   73 73  230/ 16/ 17 1016.6
41 SE CHARLESTON 2110   68 67  210/ 17/ 21 1015.1

$$




USA.gov is the U.S. government's official web portal to all federal, state and local government web resources and services.